Regional Weather Roundup
Issued by NWS Charleston, SC

Current Version | Previous Version | Graphics & Text | Print | Product List | Glossary On
Versions: 1 2 3 4 5 6 7 8 9 10 11 12 13 14 15 16 17 18 19 20 21 22 23 24 25 26 27 28 29 30 31 32 33 34 35 36 37 38 39 40 41 42 43 44 45 46 47 48 49 50
000 ASUS42 KCHS 260525 RWRCHS REGIONAL WEATHER ROUNDUP NATIONAL WEATHER SERVICE CHARLESTON SC 100 AM EDT SAT JUL 26 2014 NOTE: "FAIR" INDICATES FEW OR NO CLOUDS BELOW 12,000 FEET WITH NO SIGNIFICANT WEATHER AND/OR OBSTRUCTIONS TO VISIBILITY. NOT ALL STATIONS ARE QUALITY CONTROLLED BY THE NATIONAL WEATHER SERVICE. USE DATA WITH CAUTION...ESPECIALLY DEWPOINT OBSERVATIONS. SCZ027-030-031-034>040-042>050-260600- ...SOUTH CAROLINA... CITY SKY/WX TMP DP RH WIND PRES REMARKS N CHARLESTON MOCLDY 74 71 91 SW5 30.02S WATERFRONT PRK N/A 77 N/A N/A S8 N/A FORT JOHNSON NOT AVBL MOUNT PLEASANT FAIR 73 73 100 CALM 30.02S FOG JOHNS ISLAND PTCLDY 73 70 88 CALM 30.02F PINOPOLIS N/A 77 72 83 CALM 29.91F MONCKS CORNER N/A 73 73 100 S3 30.01R SUMMERVILLE FAIR 72 72 100 SE3 30.02R BEAUFORT MCAS LGT RAIN 73 71 93 W7 30.01F BEAUFORT ARPT FAIR 72 72 100 SE3 30.02R HILTON HEAD IS CLOUDY 73 73 100 CALM 30.03S FOG GEORGETOWN NOT AVBL WALTERBORO CLOUDY 73 N/A N/A S3 30.02R ORANGEBURG PTCLDY 74 71 91 W3 30.01F BARNWELL FAIR 73 73 100 CALM 30.02S AIKEN FAIR 72 72 100 CALM 30.06F MANNING FAIR 73 N/A N/A CALM 30.00F KINGSTREE NOT AVBL COLUMBIA CLEAR 76 70 82 W3 30.00F SUMTER CLEAR 74 72 95 E1 29.99F FLORENCE PTCLDY 73 71 93 CALM 30.01F MYRTLE BEACH PTCLDY 73 72 94 CALM 30.01F N MYRTLE BEACH CLEAR 75 72 90 CALM 30.01F $$ GAZ063-065-086>088-099>101-113>116-118-119-134-136>141-150-260600- ...GEORGIA... CITY SKY/WX TMP DP RH WIND PRES REMARKS SAVANNAH ARPT CLOUDY 77 73 87 SW3 30.04R HUNTER AAF CLOUDY 75 73 92 S7 30.02F FORT STEWART MOCLDY 78 73 84 SW2 30.03S STATESBORO NOT AVBL SYLVANIA LGT RAIN 75 75 100 CALM 30.03F CLAXTON MOCLDY 79 79 100 CALM 30.03S THOMSON PTCLDY 76 76 100 CALM 30.07S AUGUSTA-BUSH MOCLDY 72 71 97 S3 30.02S AUGUSTA-DANIEL CLOUDY 75 72 90 SE5 30.03F SWAINSBORO FAIR 79 79 100 CALM 30.03F VIDALIA N/A 79 73 83 CALM 30.03F ALMA PTCLDY 77 73 87 CALM 30.03F WAYCROSS CLEAR 80 77 91 S6 30.03F JESUP NOT AVBL BRUNSWICK PTCLDY 79 72 78 CALM 30.05S SAINT SIMONS PTCLDY 79 74 84 SW7 30.04S $$ SCZ027-028-034-036>038-045-046-048>050-GAZ119-141-260600- ...LAKE AND SUPPLEMENTAL COASTAL OBSERVATIONS... STATION/POSITION TIME TEMP WIND PRES WAVE SWELL AIR SEA DIR/SP/G HT/PER HT/PER/DIR (UTC) (F) (DEG/KT/KT) (MB) (FT/S) (FT/S/D) UPR LAKE MARION NOT AVBL WINYAH BAY 0500 74 310/ 1 1016.0S LAKE MURRAY 0500 77 180/ 6/ 8 1015.6F ACE BASIN NERRS 0500 71 CALM 1017.0R FORT PULASKI 0500 76 130/ 2/ 3 1017.2F SAPELO ISLAND 0500 80 200/ 5 1018.0S $$ ANZ835-935-AMZ111-154-330-350-352-354-374-450-454-472-260600- ...C-MAN AND BUOY OBSERVATIONS... STATION/POSITION TIME TEMP WIND PRES WAVE SWELL AIR SEA DIR/SP/G HT/PER HT/PER/DIR (UTC) (F) (DEG/KT/KT) (MB) (FT/S) (FT/S/D) FOLLY BEACH CMAN 0500 76 190/ 4/ 6 1016.9F BUOY 41004 0500 83 83 220/ 12/ 14 1016.0R 3/ 5 2/ 8 BUOY 41008 0500 83 85 230/ 16/ 17 1016.9F 3/ 5 5E ST. MARYS GA 0500 84 N/A 2/ 4 FRYING PAN BUOY NOT AVBL BUOY 41025 0500 VRB 8/ 10 1017.1F 3/ 6 2/150/ 6 CAPE LOOKOUT NC 0500 79 90/ 12/ 13 1016.7F BUOY 41002 0407 82 82 260/ 10/ 12 1019.2R 4/ 7 3/240/ 7 BUOY 41010 0500 83 84 180/ 12/ 14 1018.7R 2/ 7 2/130/ 7 BUOY 41012 NOT AVBL ST AUGUSTINE FL 0500 76 210/ 7/ 8 1019.2R CAPERS NEARSHORE 0400 78 330/ 6/ 8 N/A FRIPP NEARSHORE NOT AVBL $$

USA.gov is the U.S. government's official web portal to all federal, state and local government web resources and services.